sat.trackr.live / text

‹ back to catalog

STARLINK-31040

NORAD 58722 · 2024-002T

PAYLOAD ACTIVE UNKNOWN

§ Identity

Operator
Country
US
Launch date
2024-01-03
Launch site
AFWTR
Launch vehicle
Mass (kg)
RCS (m²)

Purposes: comms

External: N2YO · Heavens-Above · Gunter

§ Orbital elements

Epoch: 2026-09-20T21:52:27.558912Z

Period
93.85 min
Inclination
53.1589°
Eccentricity
0.0001733
Mean motion
15.34413330 rev/d
Perigee alt
461.5 km
Apogee alt
463.8 km
Semi-major
6,840.8 km
B*
7.1253e-4
RAAN
39.6725°
Arg perigee
51.1188°
Mean anomaly
308.9969°
Rev number
15,195

§ Raw data

STARLINK-310401 58722U 24002T   26263.91143008  .00023784  00000+0  71253-3 0  99912 58722  53.1589  39.6725 0001733  51.1188 308.9969 15.34413330151959

JSON: /api/v1/satellites/58722 · /tle

For live sub-satellite position, see the globe view (requires WebGL).

§ Visibility from observer

Set your observer location to see the next 7 days of passes ≥ 10°. The values pass through the URL so the page stays shareable.

No JS? Fill the form by hand. The geolocation button needs JavaScript.